Skip Page Navigation
NASA JPL Caltech
NASA Logo - Jet Propulsion Laboratory + View the NASA Portal
+ Center for Near-Earth Object Studies
JPL Home Earth Solar System Stars & Galaxies Technology
JPL Solar System Dynamics
BODIES ORBITS EPHEMERIDES TOOLS PHYSICAL DATA DISCOVERY FAQ SITE MAP
JPL Small-Body Database Browser
Search: [ help ]  
152568 (1993 FN33)
Classification: Main-belt Asteroid          SPK-ID: 2152568
Ephemeris | Orbit Diagram | Orbital Elements | Mission Design | Physical Parameters | Discovery Circumstances | Close-Approach Data ]

[ hide orbit diagram ]

For accurate long-term ephemerides, please instead use our Horizons system.This orbit viewer was implemented using two-body methods, and hence should not be used for determining accurate long-term trajectories (over several years or decades) or planetary encounter circumstances.


Orbital Elements at Epoch 2459200.5 (2020-Dec-17.0) TDB
Reference: JPL 19 (heliocentric ecliptic J2000)
 Element Value Uncertainty (1-sigma)   Units 
e .1390851021799007 5.3678e-08  
a 2.796842420693272 1.4709e-08 au
q 2.407843306830068 1.5335e-07 au
i 4.876754557323675 5.1274e-06 deg
node 37.90783749481225 5.2022e-05 deg
peri 175.5812177574666 5.4481e-05 deg
M 317.8675661433821 1.5048e-05 deg
tp 2459400.446805962965
(2021-Jul-04.94680596)
7.1384e-05 TDB
period 1708.44272589681
4.68
1.3477e-05
3.69e-08
d
yr
n .2107182140454991 1.6623e-09 deg/d
Q 3.185841534556476 1.6754e-08 au
  Orbit Determination Parameters
   # obs. used (total)      586  
   data-arc span      10261 days (28.09 yr)  
   first obs. used      1993-03-19  
   last obs. used      2021-04-22  
   planetary ephem.      DE441  
   SB-pert. ephem.      SB441-N16  
   condition code      0  
   norm. resid. RMS      .54621  
   source      ORB  
   producer      Otto Matic  
   solution date      2021-May-04 09:41:46  

Additional Information
 Earth MOID = 1.40056 au 
 Jupiter MOID = 1.77809 au 
 T_jup = 3.307 
[ show covariance matrix ]

Ephemeris | Orbit Diagram | Orbital Elements | Mission Design | Physical Parameters | Discovery Circumstances | Close-Approach Data ]

Physical Parameter Table
Parameter Symbol Value Units Sigma Reference Notes
absolute magnitude H 15.55   n/a MPCxxxxx  
diameter diameter 4.761 km 0.104 urn:nasa:pds:neowise_diameters_albedos::2.0[mainbelt] (http://adsabs.harvard.edu/abs/2011ApJ...741...68M)  
geometric albedo albedo 0.054   0.005 urn:nasa:pds:neowise_diameters_albedos::2.0[mainbelt] (http://adsabs.harvard.edu/abs/2011ApJ...741...68M)  

152568 (1993 FN33)          Discovered 1993-Mar-19 by UESAC at La Silla
Reference: 20070402/Numbers.arcLast Updated: 2007-04-04

[ hide close-approach data ]
Close-Approach Data   ...sorted by Date/Time (TDB)
Date/Time (TDB) Time Uncertainty
(days_HH:MM)
Body Nominal Distance (au) Minimum Distance (au) Maximum Distance (au) V-relative (km/s) V-infinity (km/s) JD (TDB) Time Uncertainty (minutes) Semi-major axis (km) Semi-minor axis (km) range-LOV angle (deg) N-sigma BP Orbit Ref. Reference Modified
1915-Nov-01 08:19 00:02 Jupiter 1.87083827791754 1.87083733358995 1.87083922225023 2.43852934985123 2.24520040889199 2420802.846519213 2.11704882221951 185.114200674622 15.021979796362 -83.5959871174098 2261810.35321983 T 19 CATAB v2.0g-lin.ifort 2021-May-04 09:41:48 2021-May-04 09:41
2000-Dec-04 20:16 < 00:01 Jupiter 1.94990639570692 1.94990596488607 1.94990682652776 2.48833978914619 2.3071740648914 2451883.344340645 0.381663020633835 51.5559743151846 7.56160596135582 -80.1471174820274 2612905.60948277 T 19 CATAB v2.0g-lin.ifort 2021-May-04 09:41:48 2021-May-04 09:41
2024-Jan-07 14:01 < 00:01 Jupiter 1.81614551261179 1.81614505128272 1.81614597394116 2.18158933879843 1.95616016955134 2460317.084294594 0.31140829133384 81.5509155633238 16.3420294486968 -82.7381755060165 1995190.99619011 T 19 CATAB v2.0g-lin.ifort 2021-May-04 09:41:48 2021-May-04 09:41
2047-Feb-17 18:26 < 00:01 Jupiter 1.77794874472125 1.77794829282875 1.77794919661445 2.16225240761091 1.92938507814472 2468759.268158072 0.838659495765028 111.241836248328 23.2586614100031 -83.9713130652285 1848186.18678005 T 19 CATAB v2.0g-lin.ifort 2021-May-04 09:41:48 2021-May-04 09:41
2070-Mar-30 14:59 00:01 Jupiter 1.84340728061288 1.84340656373732 1.84340799749148 2.38581420321792 2.18475044611244 2477201.124062458 1.47037676904196 153.266673389498 16.6009922273296 -84.0983030385133 2169543.41476383 T 19 CATAB v2.0g-lin.ifort 2021-May-04 09:41:48 2021-May-04 09:41
2155-May-08 23:15 00:03 Jupiter 1.99449009907973 1.99448809019362 1.9944921079655 2.57094863640681 2.40008633769806 2508285.468717891 3.43457830894729 104.74080837285 22.3162557395563 -57.3639823476854 1400554.24026686 T 19 CATAB v2.0g-lin.ifort 2021-May-04 09:41:48 2021-May-04 09:41
2178-Jun-05 17:00 00:04 Jupiter 1.83516951290357 1.83516811344821 1.83517091235944 2.17621801244788 1.952645593352 2516714.208437725 3.78139750290202 110.382396622023 21.4467813119245 -72.6668153022124 1695422.51353378 T 19 CATAB v2.0g-lin.ifort 2021-May-04 09:41:48 2021-May-04 09:41

Alternate Designations
 1993 FN33 = 2002 CD166 = 2004 TV283 = 2004 TY29 
Ephemeris | Orbit Diagram | Orbital Elements | Mission Design | Physical Parameters | Discovery Circumstances | Close-Approach Data ]
ABOUT SSD CREDITS/AWARDS PRIVACY/COPYRIGHT GLOSSARY LINKS
FirstGov 2021-Jun-13 17:28 UT
(server date/time)  
NASA Home Page
Site Manager:   Ryan S. Park
Webmaster  Alan B. Chamberlin